Weather Roundup
Issued by NWS Springfield, MO

Home | Current Version | Previous Version | Text Only | Print | Product List | Glossary On
Versions: 1 2 3 4 5 6 7 8 9 10 11 12 13 14 15 16 17 18 19 20 21 22 23 24 25 26 27 28 29 30 31 32 33 34 35 36 37 38 39 40 41 42 43 44 45 46 47 48 49 50
000
NZUS99 KSGF 012057
HRRSGF

HOURLY WEATHER
NATIONAL WEATHER SERVICE SPRINGFIELD MO
400 PM CDT TUE SEP 01 2015

......SGF CWA......

CITY           SKY/WX    TMP DP  RH WIND       PRES   REMARKS
SPRINGFIELD    SUNNY     87  65  47 SE9       30.06F
JOPLIN         MOSUNNY   86  67  52 S8        30.04F
WEST PLAINS    MOSUNNY   84  68  58 S9        30.10F

......SURROUNDING SGF CWA......

CITY           SKY/WX    TMP DP  RH WIND       PRES   REMARKS
CHANUTE        SUNNY     88  68  51 S12       30.01F HX  91
PARSONS        SUNNY     87  69  54 S7        30.02F HX  91
COFFEYVILLE    SUNNY     88  70  55 S13       30.00F HX  93
EMPORIA        SUNNY     88  64  44 S20       29.98F
HARRISON AR    SUNNY     87  62  43 S9        30.07F

......KANSAS AND MISSOURI......

CITY           SKY/WX    TMP DP  RH WIND       PRES   REMARKS
KANSAS CTY INT MOSUNNY   90  66  45 S15       29.99F HX  92
SEDALIA        MOSUNNY   92  67  43 S10       30.04F HX  95
ST JOSEPH      SUNNY     89  68  49 S12G22    29.97F HX  93
ST LOUIS       MOSUNNY   92  68  45 S10       30.05F HX  96
WICHITA        MOSUNNY   93  61  34 S15       29.94F HX  93
TOPEKA         SUNNY     91  65  41 S14G24    29.97F HX  93
OLATHE         SUNNY     86  69  56 S12       30.01F HX  90

......TENNESSEE......

CITY           SKY/WX    TMP DP  RH WIND       PRES   REMARKS
MEMPHIS        NOT AVBL
NASHVILLE      CLOUDY    88  64  44 E3        30.09F

......ARKANSAS.......

CITY           SKY/WX    TMP DP  RH WIND       PRES   REMARKS
FAYETTEVILLE   SUNNY     85  66  53 S9        30.07F
FT SMITH       PTSUNNY   93  61  34 CALM      30.00F HX  93
LITTLE ROCK    PTSUNNY   91  62  37 S8        30.04F HX  91

......OKLAHOMA.......

CITY           SKY/WX    TMP DP  RH WIND       PRES   REMARKS
TULSA          MOSUNNY   91  69  48 S13       29.98F HX  96
PONCA CITY     SUNNY     93  67  42 SE16      29.95F HX  96
MCALESTER      SUNNY     92  66  42 SW7       30.01F HX  94
OKLAHOMA CITY  MOSUNNY   92  65  40 SE17G24   29.98F HX  94

......IOWA............

CITY           SKY/WX    TMP DP  RH WIND       PRES   REMARKS
DES MOINES     NOT AVBL
QUAD CITIES    MOSUNNY   90  71  53 SW9       29.98S HX  96

......ILLINOIS........

CITY           SKY/WX    TMP DP  RH WIND       PRES   REMARKS
QUINCY         NOT AVBL
CHICAGO        MOSUNNY   87  72  60 SW12G21   29.99F HX  93




USA.gov is the U.S. government's official web portal to all federal, state and local government web resources and services.